LEMUR-2-ROBMOORE (42754 NORAD) Tracking and Keplerian Element Data

This shows tracking and keplerian element data for the satellite.

Feedback or suggestion? Click here.




ElementValue
Catalog42754
NameLEMUR-2-ROBMOORE
Epoch Orbit3842
Epoch Day46.17133922
Epoch Year2018
RAAN315.9027
Inclination51.6419
Eccentricity0.0011006
Argument of Perigee130.9404
Mean Anonmoly229.253
Mean Motion15.28530241
Decay Rate1.429E-05
L11 42754U 17019D 18046.17133922 .00001429 00000-0 63421-4 0 9993
L22 42754 51.6419 315.9027 0011006 130.9404 229.2530 15.28530241 38427

Live tracking and technical data element details for LEMUR-2-ROBMOORE (NORAD 42754). LEMUR-2-ROBMOORE can be tracked NOW for your location showing map with azimuth and elevation plus other details from your city location.

Track the satellite on the map from your city or location and see movement details for azimuth, elevation, latitude, longitude, range, height, and movement on the map or in text.







IsCatalogInMostPopularTable: catalog: 42754, numindb: 131
Update: records affected: 1



GetName: 42754 LEMUR-2-ROBMOORE

Hit Count: updated at: Mon, 19 Nov 2018 13:03:13 GMT